SCP
-0 -0 -0 -0 -0 -0 -0 -0 -0 -0 -0 0 -0 0 0 0 0 -0 -0 -0 -0 -0 -0 -0 -0 -0 -0 -0 -0 -0 -0 -0 -0 -0 0 0 0 -0 0 0 0 0 0 0 0 0 -0
0 -0 -0 -0 -0 -0 -0 -0 -0 -0 -0 -0 -0 0 0 0 0 0 0 0 0 -0 -0 -0 -0 -0 -0 0 -0 -0 0 0 0 0 0 0 0 0 0 0 0 0 0 0 0 0 0
-0 -0 -0 -0 -0 -0 -0 -0 -0 -0 -0 -0 -0 -0 0 0 0 0 0 0 0 -0 -0 -0 -0 -0 0 0 0 0 0 0 0 0 0 0 0 0 0 0 0 0 0 0 0 0 0
-0 -0 -0 -0 -0 -0 -0 -0 -0 -0 -0 -0 -0 -0 -0 0 0 0 0 0 0 -0 -0 -0 -0 -0 0 0 0 0 0 0 0 0 0 0 0 0 0 0 0 0 0 0 0 0 0
-0 -0 -0 -0 -0 -0 -0 -0 -0 -0 -0 -0 -0 -0 -0 0 -0 -0 0 0 0 -0 0 -0 0 0 -0 0 0 0 0 0 0 0 0 0 0 0 0 0 0 0 0 0 0 0 0
0 -0 -0 -0 -0 -0 -0 -0 -0 -0 -0 -0 -0 -0 -0 0 0 -0 -0 0 0 0 0 0 0 0 0 0 0 0 0 0 0 0 0 0 0 0 0 0 0 0 0 0 0 0 0
0 0 -0 -0 -0 -0 -0 -0 -0 -0 -0 -0 -0 -0 -0 -0 -0 0 0 0 0 0 0 0 0 0 0 0 0 0 0 0 0 0 0 0 0 0 0 0 0 0 0 0 0 0 0
0 -0 -0 -0 -0 -0 -0 -0 -0 -0 -0 -0 -0 -0 -0 -0 -0 0 0 0 0 0 0 0 0 0 0 0 0 0 0 0 0 0 0 0 0 0 0 0 0 0 0 -0 0 0 0
0 0 0 0 -0 -0 -0 -0 -0 -0 -0 -0 0 -0 -0 -0 0 0 0 0 0 0 0 0 0 0 0 0 0 0 0 0 0 0 0 0 0 0 0 0 0 0 0 0 0 0 0
0 0 0 0 0 -0 -0 -0 -0 -0 -0 -0 -0 -0 -0 0 0 0 0 0 0 0 0 0 0 0 0 0 0 0 0 0 0 0 0 0 0 0 0 0 0 0 0 0 0 0 0
0 0 0 0 0 0 -0 -0 -0 -0 -0 -0 -0 0 0 0 0 0 0 0 0 0 0 0 0 0 0 0 0 0 0 0 0 0 0 0 0 0 0 0 0 0 0 0 0 0 0
0 0 0 0 0 0 0 -0 -0 -0 -0 -0 0 0 0 0 0 0 0 0 0 0 0 0 0 0 0 0 0 0 0 0 0 0 0 0 0 0 0 0 0 0 0 0 0 0 0
0 0 0 0 0 0 0 0 0 -0 0 -0 0 0 0 0 0 0 0 0 0 0 0 0 0 0 0 0 0 0 0 0 0 0 0 0 0 0 0 -0 0 0 0 0 0 0 0
0 0 0 0 0 0 0 0 0 0 -0 -0 0 0 0 0 0 0 0 0 0 0 0 0 0 0 0 0 0 0 0 0 0 0 0 0 0 0 0 0 0 0 0 0 0 0 0
0 0 0 0 0 0 0 0 0 0 0 0 0 0 0 0 0 0 0 0 0 0 0 0 0 0 0 0 0 0 0 0 0 0 0 0 0 0 0 0 0 0 0 0 0 0 0
0 0 0 0 0 0 0 0 0 0 0 0 0 0 0 0 0 0 0 0 0 0 0 0 0 0 0 0 0 0 0 0 0 0 0 0 0 0 0 0 0 0 0 0 0 0 0
0 0 0 0 0 0 0 0 0 0 0 0 0 0 0 0 0 0 0 0 0 0 0 0 0 0 0 0 0 0 0 0 0 0 0 0 0 0 0 0 0 0 0 0 0 0 0
0 0 0 0 0 0 0 0 0 0 0 0 0 0 0 0 0 0 0 0 0 0 0 0 0 0 0 0 0 0 0 0 0 0 0 0 0 0 0 0 0 0 0 0 0 0 0
0 0 0 0 0 0 0 0 0 0 0 0 0 0 0 0 0 0 0 0 0 0 0 0 0 0 0 0 0 0 0 0 0 0 0 0 0 0 0 0 0 0 -0 0 0 0 0
0 0 0 0 0 0 0 0 0 0 0 0 0 0 0 0 0 0 0 0 0 0 0 0 0 0 0 0 0 0 0 0 0 0 0 0 0 0 0 0 0 0 -0 0 0 0 0
0 0 0 0 0 0 0 0 0 0 0 0 0 0 0 0 0 0 0 0 0 0 0 0 0 0 0 0 0 0 0 0 0 0 0 0 0 0 0 0 0 0 -0 0 -0 0 0
0 0 0 0 0 0 0 0 0 0 0 0 0 0 0 0 0 0 0 0 0 0 0 0 0 0 0 0 0 0 0 0 0 0 0 0 0 0 0 0 0 -0 0 -0 0 -0 0
0 0 0 0 0 0 0 0 0 0 0 0 0 0 0 0 0 0 0 0 0 0 0 0 0 0 0 0 0 0 0 0 0 0 0 0 0 0 0 0 0 -0 -0 -0 0 0 -0
0 0 0 0 0 0 0 0 0 0 0 0 0 0 0 0 0 0 0 0 0 0 0 0 0 0 0 -0 0 0 0 0 0 0 0 0 0 0 0 0 -0 0 0 -0 -0 0 -0
0 0 0 0 0 0 0 0 0 0 0 0 0 0 0 0 0 0 0 0 0 0 0 0 0 0 0 0 0 0 0 0 0 0 0 0 0 0 0 0 0 0 -0 -0 -0 0 -0
0 0 0 0 0 0 0 0 0 0 0 0 0 0 0 0 0 0 0 0 0 0 0 0 0 0 0 0 0 0 0 0 0 0 0 0 0 0 0 0 0 0 0 0 0 -0 -0
0 0 0 0 0 0 0 0 0 0 0 0 0 0 0 0 0 0 0 0 0 0 0 0 0 0 0 0 0 0 0 0 0 0 0 0 0 0 0 0 0 0 -0 -0 0 -0 -0
0 0 0 0 0 0 0 0 0 0 0 0 0 0 0 0 0 0 0 0 0 0 0 0 0 0 0 0 0 0 0 0 0 0 0 0 0 0 0 0 0 -0 0 0 0 -0 -0
0 0 0 0 0 0 0 0 0 0 0 0 0 0 0 0 0 0 0 0 0 0 0 0 0 0 0 0 0 0 0 0 0 0 0 0 0 0 0 0 0 0 0 0 0 0 0
Wind_Speed_500mb
58 60 62 63 64 65 67 69 71 72 68 53 41 38 38 36 30 25 24 28 24 25 25 26 23 19 28 22 13 13 11 10 17 20 21 21 18 10 4 7 10 10 8 14 34 44 45
58 59 61 62 63 65 67 69 71 73 69 57 37 33 29 30 28 26 26 27 22 23 20 14 15 17 13 10 10 4 6 10 14 19 22 19 12 19 7 9 4 8 26 35 34 49 43
57 58 60 62 64 66 68 70 71 74 72 60 38 30 27 21 22 25 28 27 20 17 18 11 7 7 9 13 18 19 19 12 16 21 24 21 16 15 14 12 6 17 14 14 10 10 13
54 56 59 62 64 67 70 71 72 74 74 67 38 29 27 15 19 26 28 27 15 12 22 10 11 9 7 22 29 29 24 22 18 24 29 21 18 22 10 11 15 12 4 9 10 15 14
53 56 59 61 64 67 69 72 75 76 75 70 37 32 22 15 18 26 28 23 8 10 22 11 17 14 6 35 44 33 28 26 22 23 24 24 16 11 4 3 8 5 13 11 18 11 11
52 55 57 60 63 66 69 72 75 78 79 72 34 34 22 14 18 23 29 17 7 12 24 11 27 10 26 48 51 43 33 26 30 29 22 9 6 3 6 7 11 17 19 19 31 11 25
50 53 56 59 62 65 68 71 75 79 82 69 32 33 23 12 16 22 28 11 11 5 14 9 17 4 34 49 32 24 20 19 20 18 5 4 3 18 30 17 26 28 27 35 46 31 26
48 51 54 57 61 63 67 70 73 78 81 64 35 29 24 15 19 19 25 13 12 7 11 13 28 23 44 31 15 49 20 8 6 9 3 8 20 26 13 14 18 21 30 46 36 27 18
47 50 53 56 59 62 65 69 72 75 78 61 33 30 29 10 12 22 14 15 12 10 1 10 13 20 37 32 12 48 31 10 7 7 9 10 26 28 9 15 24 23 21 35 42 41 31
46 49 52 55 58 61 64 68 71 72 74 62 30 35 38 34 13 28 10 27 23 6 8 12 13 14 32 31 19 34 29 8 5 8 12 14 8 5 19 12 9 14 9 22 29 23 20
48 50 53 56 60 63 65 67 69 70 71 68 19 33 43 40 34 29 34 36 4 11 7 18 11 23 29 23 23 34 29 9 8 12 6 17 13 10 12 9 3 22 30 28 35 29 25
49 52 54 57 60 62 66 68 68 70 70 67 42 21 39 42 39 36 33 6 13 11 3 11 7 12 12 16 28 24 16 16 6 7 5 27 20 7 9 10 17 24 14 38 18 4 6
49 52 54 57 60 62 65 68 70 69 69 66 38 23 40 37 44 38 30 6 10 11 7 14 13 11 9 12 12 13 10 13 5 13 24 18 8 7 5 15 10 10 21 10 9 1 9
48 51 54 57 59 62 65 68 70 70 70 64 57 14 45 36 40 40 23 10 14 5 9 10 10 12 7 13 10 15 13 11 1 3 7 10 17 7 3 4 14 17 4 5 13 11 22
48 50 53 56 60 64 66 68 71 71 70 69 59 26 23 36 34 32 9 11 8 5 7 9 15 6 8 8 3 14 8 5 2 1 5 9 12 11 22 17 6 6 11 8 10 10 7
50 52 55 58 61 64 67 67 71 71 68 68 61 31 25 42 18 19 12 4 5 6 7 5 6 2 7 12 11 10 6 6 8 4 6 7 16 10 16 9 3 4 15 6 5 11 7
52 54 56 59 61 62 63 64 65 70 70 64 49 19 25 45 14 17 7 6 7 15 8 3 4 7 10 10 6 7 9 9 2 7 12 2 9 18 18 6 10 8 14 8 7 8 6
50 52 55 56 58 59 59 61 61 66 69 64 35 10 28 40 15 7 3 6 11 11 14 6 3 9 6 9 8 5 8 5 14 7 8 8 6 13 29 30 12 12 13 12 6 14 4
51 51 52 53 54 55 59 63 63 58 55 54 41 13 15 31 7 7 13 9 6 13 10 8 8 4 10 6 9 10 7 11 24 9 6 3 4 13 16 11 11 8 27 31 25 12 6
53 53 50 49 50 51 54 56 59 58 45 37 16 8 11 17 14 6 10 8 12 22 12 21 9 7 12 9 11 11 6 8 27 16 16 3 4 11 10 28 29 25 28 37 15 11 19
54 52 46 48 50 51 52 52 49 54 41 23 11 5 5 8 8 9 2 8 12 15 10 18 6 7 7 9 11 8 8 10 17 11 7 6 10 8 17 28 27 28 23 34 26 32 12
50 50 50 52 52 53 54 53 44 39 37 13 13 11 13 13 15 9 6 7 6 7 7 12 5 24 11 12 12 31 18 3 13 4 4 5 9 8 21 15 22 27 20 23 14 28 27
53 54 55 56 55 52 49 47 38 22 25 13 18 14 9 8 8 4 1 6 9 27 14 25 20 18 15 13 37 67 55 53 34 15 5 6 5 10 9 14 21 2 21 18 21 21 21
58 57 56 53 51 46 41 38 34 19 10 12 13 13 5 7 3 4 8 15 19 10 12 38 38 7 20 72 69 37 24 29 25 26 28 6 6 4 8 14 4 3 6 15 20 11 21
55 54 51 49 46 44 39 32 28 18 19 13 14 8 5 5 13 24 6 15 28 35 12 22 28 44 49 33 9 12 9 9 2 2 9 12 3 6 3 9 11 6 19 13 14 7 20
48 47 46 43 43 40 37 32 27 22 19 23 20 22 14 5 9 12 7 18 9 8 9 11 47 44 24 5 7 5 5 5 8 15 5 1 9 4 4 6 5 7 19 25 3 7 29
43 44 43 40 39 38 36 32 28 24 20 25 27 26 18 12 39 30 11 9 15 8 6 15 24 18 24 8 6 3 7 4 4 6 5 9 6 3 4 6 7 3 20 17 10 11 47
40 41 41 38 37 37 35 33 30 27 23 25 30 27 30 19 48 61 53 38 20 11 5 22 20 5 8 10 5 5 3 6 6 8 7 5 4 4 0 3 5 4 7 6 11 27 34
39 39 40 38 36 35 34 32 31 30 27 30 36 28 31 37 41 55 64 69 67 66 41 14 9 2 8 1 3 2 6 6 3 7 4 6 10 5 11 10 9 28 7 9 14 23 29
Wind_Direction_500mb
39 35 33 31 30 27 25 22 20 19 17 17 21 29 32 36 42 48 39 25 32 38 50 56 62 66 63 66 91 64 39 28 16 4 351 349 3 12 29 277 297 217 266 284 291 288 287
37 35 32 30 29 27 23 21 18 16 15 14 16 28 35 39 41 36 26 20 28 40 51 60 62 60 46 52 359 341 351 343 340 343 345 329 321 330 273 251 163 258 274 279 282 270 268
34 32 31 28 27 26 23 20 17 15 13 11 13 18 23 39 33 19 10 10 17 35 45 56 31 17 15 13 339 321 309 301 303 307 313 336 298 304 314 302 311 282 307 319 260 252 255
31 29 28 26 24 23 22 20 16 14 11 9 11 16 14 39 26 15 4 2 9 41 27 43 28 335 307 342 344 323 304 313 302 299 292 311 269 277 248 286 333 341 321 339 280 305 264
27 25 24 22 21 20 19 19 16 13 9 7 10 14 25 41 36 16 7 5 22 40 9 11 2 355 348 342 336 321 308 300 299 304 302 288 276 262 288 11 347 326 268 284 306 226 281
21 20 19 18 17 16 16 15 14 12 7 6 13 13 19 36 33 21 13 10 36 26 4 7 8 3 358 341 329 318 316 278 284 294 291 256 260 337 29 82 276 281 281 278 276 255 296
17 16 15 14 13 12 12 12 12 12 8 8 16 13 21 37 24 24 21 25 9 356 20 42 350 332 339 351 27 352 316 288 280 266 260 328 303 263 271 247 261 282 277 265 276 279 282
11 11 10 10 9 9 9 8 9 11 9 9 18 12 23 64 34 25 27 56 31 336 317 24 18 20 6 1 358 14 333 274 263 264 318 339 260 282 287 278 270 265 273 281 283 281 259
6 6 6 6 6 6 6 5 5 8 11 8 14 17 20 360 347 11 22 27 5 327 336 358 8 17 8 347 8 8 343 306 271 285 259 230 264 315 308 301 291 270 260 275 279 296 275
2 1 1 2 2 3 3 4 4 4 9 9 30 31 22 14 355 349 349 336 321 266 68 319 339 356 351 349 1 353 347 282 293 280 311 269 280 313 312 278 268 288 250 271 282 296 299
355 357 357 357 358 358 360 1 2 1 4 8 344 17 9 0 349 348 338 325 288 164 28 307 317 351 357 16 304 353 345 320 277 281 61 265 299 320 298 240 287 262 292 280 276 274 295
351 352 353 354 355 356 356 357 359 359 358 6 357 341 358 356 359 341 340 18 132 43 326 332 315 337 14 341 336 343 353 350 293 324 247 263 290 236 232 265 264 279 305 294 279 274 228
347 349 350 350 351 353 353 353 355 357 356 359 5 20 9 359 355 346 342 197 34 81 18 305 299 360 323 328 315 353 334 1 33 356 343 319 279 260 214 305 292 24 332 310 342 327 252
344 345 346 347 348 349 351 350 350 353 353 353 359 322 9 358 351 344 345 57 67 255 270 281 317 329 317 357 314 331 355 353 214 75 308 1 325 12 358 220 274 307 320 306 304 302 296
340 342 343 344 345 346 347 348 346 348 350 348 350 341 335 359 346 348 351 53 186 239 258 304 331 8 322 315 307 5 320 291 302 104 20 338 271 297 292 284 192 354 315 255 267 241 268
336 338 339 340 342 343 344 346 345 345 348 347 349 347 5 351 355 356 68 203 220 228 321 49 1 346 313 312 348 0 301 283 339 191 163 267 293 263 312 320 185 220 311 289 230 304 292
330 332 333 336 339 341 342 345 348 344 347 350 353 345 350 357 10 48 96 247 292 317 340 252 266 284 268 300 268 294 273 293 90 294 180 228 211 295 325 324 333 342 316 282 268 250 286
324 326 329 331 335 339 340 342 347 344 345 349 355 343 343 3 44 39 31 293 317 342 335 327 297 219 239 292 286 278 259 259 337 335 300 225 274 289 285 289 249 308 306 305 287 315 286
316 320 324 327 330 334 337 339 343 348 347 345 336 300 354 15 63 347 317 313 311 353 313 27 290 253 30 296 307 224 250 262 310 345 253 203 280 305 332 13 10 355 324 345 316 275 286
310 311 317 322 327 330 333 336 338 345 346 342 333 347 350 51 83 49 352 320 332 334 302 342 266 58 2 303 235 273 289 304 312 281 235 172 266 215 263 287 294 298 330 349 354 342 318
312 312 315 317 320 323 326 330 335 337 349 347 359 23 8 315 1 352 300 329 339 5 320 319 320 64 339 291 290 249 260 315 296 298 171 183 257 234 251 271 286 271 354 346 2 357 356
305 309 313 314 315 316 319 323 329 338 2 3 18 4 348 306 320 342 13 22 302 333 264 299 288 312 306 232 243 290 315 247 250 311 258 208 272 284 304 298 310 310 4 341 9 5 353
301 304 306 309 311 314 316 320 325 338 3 10 8 354 337 317 343 14 237 346 308 323 277 258 304 318 296 249 300 284 273 263 248 272 309 256 266 313 275 301 316 80 6 335 327 26 358
296 300 303 307 308 310 313 315 319 323 333 336 343 345 334 286 315 251 323 309 286 275 259 292 306 229 288 311 305 294 274 248 234 247 223 287 316 261 282 332 8 90 311 317 317 346 3
296 298 302 305 307 308 308 307 306 303 299 295 296 304 289 272 272 296 237 314 310 313 257 272 301 314 313 312 334 343 344 19 308 131 190 196 295 285 330 313 294 357 335 331 328 338 350
295 297 300 303 305 305 304 303 294 286 271 283 278 282 234 260 251 251 299 297 295 301 315 256 325 343 350 32 28 353 278 326 315 334 215 77 213 229 302 292 237 281 312 342 40 279 343
292 295 297 300 303 304 302 296 290 277 266 269 269 278 238 255 273 262 236 270 283 272 260 303 338 331 5 17 8 338 292 306 307 295 307 308 291 199 274 269 293 266 305 339 34 291 316
289 290 292 297 300 300 300 297 289 277 255 259 271 261 269 263 275 278 271 270 243 231 238 307 337 317 347 32 39 309 283 282 321 259 250 232 301 257 176 251 315 292 334 41 246 299 312
285 284 287 292 294 294 295 294 291 281 267 239 265 270 275 262 266 280 284 278 270 273 277 258 241 258 261 128 194 271 290 294 239 277 293 272 196 228 182 224 226 312 267 254 265 281 314
Wind_Speed_850mb
58 60 62 63 64 65 67 69 71 72 68 53 41 38 38 36 30 25 24 28 24 25 25 26 23 19 28 22 13 13 11 10 17 20 21 21 18 10 4 7 10 10 8 14 34 44 45
58 59 61 62 63 65 67 69 71 73 69 57 37 33 29 30 28 26 26 27 22 23 20 14 15 17 13 10 10 4 6 10 14 19 22 19 12 19 7 9 4 8 26 35 34 49 43
57 58 60 62 64 66 68 70 71 74 72 60 38 30 27 21 22 25 28 27 20 17 18 11 7 7 9 13 18 19 19 12 16 21 24 21 16 15 14 12 6 17 14 14 10 10 13
54 56 59 62 64 67 70 71 72 74 74 67 38 29 27 15 19 26 28 27 15 12 22 10 11 9 7 22 29 29 24 22 18 24 29 21 18 22 10 11 15 12 4 9 10 15 14
53 56 59 61 64 67 69 72 75 76 75 70 37 32 22 15 18 26 28 23 8 10 22 11 17 14 6 35 44 33 28 26 22 23 24 24 16 11 4 3 8 5 13 11 18 11 11
52 55 57 60 63 66 69 72 75 78 79 72 34 34 22 14 18 23 29 17 7 12 24 11 27 10 26 48 51 43 33 26 30 29 22 9 6 3 6 7 11 17 19 19 31 11 25
50 53 56 59 62 65 68 71 75 79 82 69 32 33 23 12 16 22 28 11 11 5 14 9 17 4 34 49 32 24 20 19 20 18 5 4 3 18 30 17 26 28 27 35 46 31 26
48 51 54 57 61 63 67 70 73 78 81 64 35 29 24 15 19 19 25 13 12 7 11 13 28 23 44 31 15 49 20 8 6 9 3 8 20 26 13 14 18 21 30 46 36 27 18
47 50 53 56 59 62 65 69 72 75 78 61 33 30 29 10 12 22 14 15 12 10 1 10 13 20 37 32 12 48 31 10 7 7 9 10 26 28 9 15 24 23 21 35 42 41 31
46 49 52 55 58 61 64 68 71 72 74 62 30 35 38 34 13 28 10 27 23 6 8 12 13 14 32 31 19 34 29 8 5 8 12 14 8 5 19 12 9 14 9 22 29 23 20
48 50 53 56 60 63 65 67 69 70 71 68 19 33 43 40 34 29 34 36 4 11 7 18 11 23 29 23 23 34 29 9 8 12 6 17 13 10 12 9 3 22 30 28 35 29 25
49 52 54 57 60 62 66 68 68 70 70 67 42 21 39 42 39 36 33 6 13 11 3 11 7 12 12 16 28 24 16 16 6 7 5 27 20 7 9 10 17 24 14 38 18 4 6
49 52 54 57 60 62 65 68 70 69 69 66 38 23 40 37 44 38 30 6 10 11 7 14 13 11 9 12 12 13 10 13 5 13 24 18 8 7 5 15 10 10 21 10 9 1 9
48 51 54 57 59 62 65 68 70 70 70 64 57 14 45 36 40 40 23 10 14 5 9 10 10 12 7 13 10 15 13 11 1 3 7 10 17 7 3 4 14 17 4 5 13 11 22
48 50 53 56 60 64 66 68 71 71 70 69 59 26 23 36 34 32 9 11 8 5 7 9 15 6 8 8 3 14 8 5 2 1 5 9 12 11 22 17 6 6 11 8 10 10 7
50 52 55 58 61 64 67 67 71 71 68 68 61 31 25 42 18 19 12 4 5 6 7 5 6 2 7 12 11 10 6 6 8 4 6 7 16 10 16 9 3 4 15 6 5 11 7
52 54 56 59 61 62 63 64 65 70 70 64 49 19 25 45 14 17 7 6 7 15 8 3 4 7 10 10 6 7 9 9 2 7 12 2 9 18 18 6 10 8 14 8 7 8 6
50 52 55 56 58 59 59 61 61 66 69 64 35 10 28 40 15 7 3 6 11 11 14 6 3 9 6 9 8 5 8 5 14 7 8 8 6 13 29 30 12 12 13 12 6 14 4
51 51 52 53 54 55 59 63 63 58 55 54 41 13 15 31 7 7 13 9 6 13 10 8 8 4 10 6 9 10 7 11 24 9 6 3 4 13 16 11 11 8 27 31 25 12 6
53 53 50 49 50 51 54 56 59 58 45 37 16 8 11 17 14 6 10 8 12 22 12 21 9 7 12 9 11 11 6 8 27 16 16 3 4 11 10 28 29 25 28 37 15 11 19
54 52 46 48 50 51 52 52 49 54 41 23 11 5 5 8 8 9 2 8 12 15 10 18 6 7 7 9 11 8 8 10 17 11 7 6 10 8 17 28 27 28 23 34 26 32 12
50 50 50 52 52 53 54 53 44 39 37 13 13 11 13 13 15 9 6 7 6 7 7 12 5 24 11 12 12 31 18 3 13 4 4 5 9 8 21 15 22 27 20 23 14 28 27
53 54 55 56 55 52 49 47 38 22 25 13 18 14 9 8 8 4 1 6 9 27 14 25 20 18 15 13 37 67 55 53 34 15 5 6 5 10 9 14 21 2 21 18 21 21 21
58 57 56 53 51 46 41 38 34 19 10 12 13 13 5 7 3 4 8 15 19 10 12 38 38 7 20 72 69 37 24 29 25 26 28 6 6 4 8 14 4 3 6 15 20 11 21
55 54 51 49 46 44 39 32 28 18 19 13 14 8 5 5 13 24 6 15 28 35 12 22 28 44 49 33 9 12 9 9 2 2 9 12 3 6 3 9 11 6 19 13 14 7 20
48 47 46 43 43 40 37 32 27 22 19 23 20 22 14 5 9 12 7 18 9 8 9 11 47 44 24 5 7 5 5 5 8 15 5 1 9 4 4 6 5 7 19 25 3 7 29
43 44 43 40 39 38 36 32 28 24 20 25 27 26 18 12 39 30 11 9 15 8 6 15 24 18 24 8 6 3 7 4 4 6 5 9 6 3 4 6 7 3 20 17 10 11 47
40 41 41 38 37 37 35 33 30 27 23 25 30 27 30 19 48 61 53 38 20 11 5 22 20 5 8 10 5 5 3 6 6 8 7 5 4 4 0 3 5 4 7 6 11 27 34
39 39 40 38 36 35 34 32 31 30 27 30 36 28 31 37 41 55 64 69 67 66 41 14 9 2 8 1 3 2 6 6 3 7 4 6 10 5 11 10 9 28 7 9 14 23 29
Wind_Direction_850mb
39 35 33 31 30 27 25 22 20 19 17 17 21 29 32 36 42 48 39 25 32 38 50 56 62 66 63 66 91 64 39 28 16 4 351 349 3 12 29 277 297 217 266 284 291 288 287
37 35 32 30 29 27 23 21 18 16 15 14 16 28 35 39 41 36 26 20 28 40 51 60 62 60 46 52 359 341 351 343 340 343 345 329 321 330 273 251 163 258 274 279 282 270 268
34 32 31 28 27 26 23 20 17 15 13 11 13 18 23 39 33 19 10 10 17 35 45 56 31 17 15 13 339 321 309 301 303 307 313 336 298 304 314 302 311 282 307 319 260 252 255
31 29 28 26 24 23 22 20 16 14 11 9 11 16 14 39 26 15 4 2 9 41 27 43 28 335 307 342 344 323 304 313 302 299 292 311 269 277 248 286 333 341 321 339 280 305 264
27 25 24 22 21 20 19 19 16 13 9 7 10 14 25 41 36 16 7 5 22 40 9 11 2 355 348 342 336 321 308 300 299 304 302 288 276 262 288 11 347 326 268 284 306 226 281
21 20 19 18 17 16 16 15 14 12 7 6 13 13 19 36 33 21 13 10 36 26 4 7 8 3 358 341 329 318 316 278 284 294 291 256 260 337 29 82 276 281 281 278 276 255 296
17 16 15 14 13 12 12 12 12 12 8 8 16 13 21 37 24 24 21 25 9 356 20 42 350 332 339 351 27 352 316 288 280 266 260 328 303 263 271 247 261 282 277 265 276 279 282
11 11 10 10 9 9 9 8 9 11 9 9 18 12 23 64 34 25 27 56 31 336 317 24 18 20 6 1 358 14 333 274 263 264 318 339 260 282 287 278 270 265 273 281 283 281 259
6 6 6 6 6 6 6 5 5 8 11 8 14 17 20 360 347 11 22 27 5 327 336 358 8 17 8 347 8 8 343 306 271 285 259 230 264 315 308 301 291 270 260 275 279 296 275
2 1 1 2 2 3 3 4 4 4 9 9 30 31 22 14 355 349 349 336 321 266 68 319 339 356 351 349 1 353 347 282 293 280 311 269 280 313 312 278 268 288 250 271 282 296 299
355 357 357 357 358 358 360 1 2 1 4 8 344 17 9 0 349 348 338 325 288 164 28 307 317 351 357 16 304 353 345 320 277 281 61 265 299 320 298 240 287 262 292 280 276 274 295
351 352 353 354 355 356 356 357 359 359 358 6 357 341 358 356 359 341 340 18 132 43 326 332 315 337 14 341 336 343 353 350 293 324 247 263 290 236 232 265 264 279 305 294 279 274 228
347 349 350 350 351 353 353 353 355 357 356 359 5 20 9 359 355 346 342 197 34 81 18 305 299 360 323 328 315 353 334 1 33 356 343 319 279 260 214 305 292 24 332 310 342 327 252
344 345 346 347 348 349 351 350 350 353 353 353 359 322 9 358 351 344 345 57 67 255 270 281 317 329 317 357 314 331 355 353 214 75 308 1 325 12 358 220 274 307 320 306 304 302 296
340 342 343 344 345 346 347 348 346 348 350 348 350 341 335 359 346 348 351 53 186 239 258 304 331 8 322 315 307 5 320 291 302 104 20 338 271 297 292 284 192 354 315 255 267 241 268
336 338 339 340 342 343 344 346 345 345 348 347 349 347 5 351 355 356 68 203 220 228 321 49 1 346 313 312 348 0 301 283 339 191 163 267 293 263 312 320 185 220 311 289 230 304 292
330 332 333 336 339 341 342 345 348 344 347 350 353 345 350 357 10 48 96 247 292 317 340 252 266 284 268 300 268 294 273 293 90 294 180 228 211 295 325 324 333 342 316 282 268 250 286
324 326 329 331 335 339 340 342 347 344 345 349 355 343 343 3 44 39 31 293 317 342 335 327 297 219 239 292 286 278 259 259 337 335 300 225 274 289 285 289 249 308 306 305 287 315 286
316 320 324 327 330 334 337 339 343 348 347 345 336 300 354 15 63 347 317 313 311 353 313 27 290 253 30 296 307 224 250 262 310 345 253 203 280 305 332 13 10 355 324 345 316 275 286
310 311 317 322 327 330 333 336 338 345 346 342 333 347 350 51 83 49 352 320 332 334 302 342 266 58 2 303 235 273 289 304 312 281 235 172 266 215 263 287 294 298 330 349 354 342 318
312 312 315 317 320 323 326 330 335 337 349 347 359 23 8 315 1 352 300 329 339 5 320 319 320 64 339 291 290 249 260 315 296 298 171 183 257 234 251 271 286 271 354 346 2 357 356
305 309 313 314 315 316 319 323 329 338 2 3 18 4 348 306 320 342 13 22 302 333 264 299 288 312 306 232 243 290 315 247 250 311 258 208 272 284 304 298 310 310 4 341 9 5 353
301 304 306 309 311 314 316 320 325 338 3 10 8 354 337 317 343 14 237 346 308 323 277 258 304 318 296 249 300 284 273 263 248 272 309 256 266 313 275 301 316 80 6 335 327 26 358
296 300 303 307 308 310 313 315 319 323 333 336 343 345 334 286 315 251 323 309 286 275 259 292 306 229 288 311 305 294 274 248 234 247 223 287 316 261 282 332 8 90 311 317 317 346 3
296 298 302 305 307 308 308 307 306 303 299 295 296 304 289 272 272 296 237 314 310 313 257 272 301 314 313 312 334 343 344 19 308 131 190 196 295 285 330 313 294 357 335 331 328 338 350
295 297 300 303 305 305 304 303 294 286 271 283 278 282 234 260 251 251 299 297 295 301 315 256 325 343 350 32 28 353 278 326 315 334 215 77 213 229 302 292 237 281 312 342 40 279 343
292 295 297 300 303 304 302 296 290 277 266 269 269 278 238 255 273 262 236 270 283 272 260 303 338 331 5 17 8 338 292 306 307 295 307 308 291 199 274 269 293 266 305 339 34 291 316
289 290 292 297 300 300 300 297 289 277 255 259 271 261 269 263 275 278 271 270 243 231 238 307 337 317 347 32 39 309 283 282 321 259 250 232 301 257 176 251 315 292 334 41 246 299 312
285 284 287 292 294 294 295 294 291 281 267 239 265 270 275 262 266 280 284 278 270 273 277 258 241 258 261 128 194 271 290 294 239 277 293 272 196 228 182 224 226 312 267 254 265 281 314